N8HKU-5 Weather Reports


time (UTC)temp
C
wind
direction
speed
KPH
gust
KPH
rain 1hr
cm
rain 24hr
cm
rain mn
cm
humidity
%
barometer
mb
20260503215233 16 256 3.2 20.9 0.00 0.00 0.00 44 1007.4
20260503214233 16 239 4.8 29.0 0.00 0.00 0.00 43 1007.4
20260503213233 16 261 4.8 22.5 0.00 0.00 0.00 43 1007.4
20260503212233 17 267 9.7 29.0 0.00 0.00 0.00 42 1007.4
20260503211233 17 266 9.7 27.4 0.00 0.00 0.00 42 1007.4
20260503210233 17 255 8.0 32.2 0.00 0.00 0.00 42 1007.6
20260503205233 16 238 8.0 24.1 0.00 0.00 0.00 43 1007.7
20260503204233 16 251 3.2 25.7 0.00 0.00 0.00 42 1007.8
20260503203233 16 252 8.0 25.7 0.00 0.00 0.00 43 1007.8
20260503202233 16 249 3.2 27.4 0.00 0.00 0.00 42 1007.8
20260503201233 16 257 9.7 27.4 0.00 0.00 0.00 44 1007.7
20260503200233 16 255 8.0 25.7 0.00 0.00 0.00 41 1007.9
20260503195233 17 255 6.4 24.1 0.00 0.00 0.00 39 1008.1
20260503194233 17 248 3.2 22.5 0.00 0.00 0.00 42 1008.1
20260503193233 16 266 6.4 24.1 0.00 0.00 0.00 45 1008.4
20260503192234 16 254 4.8 22.5 0.00 0.00 0.00 41 1008.5
20260503191233 16 240 6.4 27.4 0.00 0.00 0.00 43 1008.6
20260503190234 16 263 9.7 24.1 0.00 0.00 0.00 41 1008.7
20260503185233 16 262 6.4 27.4 0.00 0.00 0.00 40 1008.8
20260503184233 16 271 8.0 24.1 0.00 0.00 0.00 42 1008.9
20260503183233 17 236 4.8 22.5 0.00 0.00 0.00 39 1009.0
20260503182234 17 264 6.4 29.0 0.00 0.00 0.00 42 1009.1
20260503181234 17 255 8.0 27.4 0.00 0.00 0.00 41 1009.3
20260503180233 16 251 3.2 20.9 0.00 0.00 0.00 45 1009.4
20260503175234 15 275 8.0 25.7 0.00 0.00 0.00 41 1009.6
20260503174234 16 256 8.0 24.1 0.00 0.00 0.00 42 1009.7
20260503173234 16 226 4.8 20.9 0.00 0.00 0.00 45 1009.9
20260503172234 15 241 3.2 24.1 0.00 0.00 0.00 47 1010.1
20260503171234 14 249 3.2 19.3 0.00 0.00 0.00 44 1010.4
20260503170235 15 262 8.0 27.4 0.00 0.00 0.00 44 1010.5
20260503150234 13 260 4.8 19.3 0.00 0.00 0.00 45 1011.3
20260503140234 10 279 1.6 12.9 0.00 0.00 0.00 57 1011.7
20260503131234 7 209 1.6 17.7 0.00 0.00 0.00 62 1011.9
20260503130234 7 201 0.0 12.9 0.00 0.00 0.00 64 1011.9
20260503110234 2 0 0.0 0.0 0.00 0.00 0.00 75 1011.9
20260503100235 1 0 0.0 0.0 0.00 0.00 0.00 78 1012.1
20260503090234 -1 0 0.0 0.0 0.00 0.00 0.00 89 1012.5
20260503081235 -1 0 0.0 0.0 0.00 0.00 0.00 87 1012.7
20260503080234 -1 0 0.0 0.0 0.00 0.00 0.00 86 1012.7
20260503072234 0 0 0.0 0.0 0.00 0.00 0.00 86 1012.8
20260503071234 0 0 0.0 0.0 0.00 0.00 0.00 87 1012.9
20260503070234 0 0 0.0 0.0 0.00 0.00 0.00 87 1012.9
20260503060234 -1 0 0.0 0.0 0.00 0.00 0.00 87 1013.3
20260503054234 0 0 0.0 0.0 0.00 0.00 0.00 87 1013.5
20260503053235 0 0 0.0 0.0 0.00 0.00 0.00 88 1013.4
20260503052234 0 0 0.0 0.0 0.00 0.00 0.00 88 1013.5
20260503051234 0 0 0.0 0.0 0.00 0.00 0.00 87 1013.6
20260503050234 0 0 0.0 0.0 0.00 0.00 0.00 87 1013.6
20260503045234 0 0 0.0 0.0 0.00 0.00 0.00 87 1013.7
20260503044233 0 0 0.0 0.0 0.00 0.00 0.00 87 1013.7
20260503043233 0 0 0.0 0.0 0.00 0.00 0.00 88 1013.7
20260503042233 0 0 0.0 0.0 0.00 0.00 0.00 87 1013.7
20260503041233 0 0 0.0 0.0 0.00 0.00 0.00 88 1013.8
20260503040233 0 0 0.0 0.0 0.00 0.00 0.00 87 1013.8
20260503035233 0 0 0.0 0.0 0.00 0.00 0.00 87 1013.9
20260503034233 0 0 0.0 0.0 0.00 0.00 0.00 86 1013.9
20260503033234 0 0 0.0 0.0 0.00 0.00 0.00 86 1014.0
20260503032234 0 0 0.0 0.0 0.00 0.00 0.00 86 1013.9
20260503031233 0 0 0.0 0.0 0.00 0.00 0.00 85 1014.0
20260503030234 0 0 0.0 0.0 0.00 0.00 0.00 85 1014.0
20260503025234 0 0 0.0 0.0 0.00 0.00 0.00 84 1014.1
20260503024233 0 0 0.0 0.0 0.00 0.00 0.00 83 1014.2
20260503023234 1 0 0.0 0.0 0.00 0.00 0.00 82 1014.2
20260503022234 1 0 0.0 0.0 0.00 0.00 0.00 81 1014.2
20260503021233 1 0 0.0 0.0 0.00 0.00 0.00 81 1014.1
20260503020234 1 0 0.0 0.0 0.00 0.00 0.00 79 1014.0
20260503015234 2 0 0.0 0.0 0.00 0.00 0.00 77 1014.0
20260503014234 2 0 0.0 0.0 0.00 0.00 0.00 73 1013.9
20260503013233 2 0 0.0 0.0 0.00 0.00 0.00 70 1013.9
20260503012234 3 0 0.0 0.0 0.00 0.00 0.00 67 1013.9
20260503011233 3 0 0.0 0.0 0.00 0.00 0.00 65 1013.9
20260503010233 4 0 0.0 0.0 0.00 0.00 0.00 62 1013.9
20260503005234 5 0 0.0 0.0 0.00 0.00 0.00 59 1013.8
20260503004233 6 0 0.0 0.0 0.00 0.00 0.00 56 1013.7
20260503003233 7 0 0.0 0.0 0.00 0.00 0.00 53 1013.7
20260503002234 7 0 0.0 0.0 0.00 0.00 0.00 54 1013.7
20260503001234 7 0 0.0 0.0 0.00 0.00 0.00 49 1013.7
20260503000234 7 0 0.0 0.0 0.00 0.00 0.00 49 1013.7
20260502235233 7 0 0.0 0.0 0.00 0.00 0.00 49 1013.7
20260502234234 8 0 0.0 0.0 0.00 0.00 0.00 48 1013.7
20260502233233 8 0 0.0 0.0 0.00 0.00 0.00 47 1013.7
20260502232233 8 0 0.0 0.0 0.00 0.00 0.00 47 1013.8
20260502231234 8 294 0.0 4.8 0.00 0.00 0.00 46 1013.8
20260502230233 8 259 0.0 6.4 0.00 0.00 0.00 47 1013.9
20260502225234 8 280 0.0 6.4 0.00 0.00 0.00 45 1013.9
20260502224233 8 0 0.0 1.6 0.00 0.00 0.00 46 1013.8
20260502223233 8 264 0.0 12.9 0.00 0.00 0.00 46 1013.8
20260502222234 8 0 0.0 1.6 0.00 0.00 0.00 46 1013.8
20260502221233 8 0 0.0 0.0 0.00 0.00 0.00 44 1013.8
20260502220233 8 0 0.0 0.0 0.00 0.00 0.00 46 1013.8